TimeEDT,TemperatureF,Dew PointF,Humidity,Sea Level PressureIn,VisibilityMPH,Wind Direction,Wind SpeedMPH,Gust SpeedMPH,PrecipitationIn,Events,Conditions,WindDirDegrees,DateUTC
12:13 AM,61.5,58.8,91,30.03,10.0,WSW,9.2,-,N/A,,Overcast,240,2012-10-05 04:13:00
12:33 AM,61.0,57.6,88,30.02,10.0,WSW,10.4,-,N/A,,Overcast,240,2012-10-05 04:33:00
12:52 AM,60.6,56.3,86,30.04,10.0,West,9.2,-,N/A,Rain,Light Rain,260,2012-10-05 04:52:00
1:12 AM,59.0,54.0,83,30.04,10.0,West,10.4,-,N/A,,Overcast,260,2012-10-05 05:12:00
1:32 AM,58.6,52.9,81,30.04,10.0,West,8.1,-,N/A,,Overcast,260,2012-10-05 05:32:00
1:52 AM,58.1,53.1,83,30.04,10.0,WSW,4.6,-,N/A,Rain,Light Rain,240,2012-10-05 05:52:00
2:12 AM,57.2,53.2,87,30.04,7.0,WSW,4.6,-,N/A,Rain,Light Rain,250,2012-10-05 06:12:00
2:32 AM,56.7,52.9,87,30.04,10.0,WSW,5.8,-,N/A,Rain,Light Rain,240,2012-10-05 06:32:00
2:52 AM,56.3,52.7,88,30.05,10.0,WSW,6.9,-,N/A,,Overcast,240,2012-10-05 06:52:00
3:12 AM,56.3,51.1,83,30.04,10.0,West,5.8,-,N/A,,Overcast,260,2012-10-05 07:12:00
3:32 AM,55.9,51.1,84,30.03,10.0,WSW,3.5,-,N/A,,Overcast,240,2012-10-05 07:32:00
3:52 AM,55.6,50.7,84,30.03,10.0,WSW,5.8,-,N/A,,Overcast,240,2012-10-05 07:52:00
4:12 AM,55.4,50.2,83,30.03,10.0,WSW,4.6,-,N/A,,Overcast,240,2012-10-05 08:12:00
4:32 AM,55.4,50.4,83,30.05,10.0,WSW,4.6,-,N/A,,Overcast,250,2012-10-05 08:32:00
4:52 AM,54.9,50.0,84,30.06,10.0,WSW,5.8,-,N/A,,Mostly Cloudy,250,2012-10-05 08:52:00
5:13 AM,54.5,49.5,83,30.06,10.0,West,4.6,-,N/A,,Clear,260,2012-10-05 09:13:00
5:32 AM,54.0,49.3,84,30.06,10.0,West,4.6,-,N/A,,Clear,260,2012-10-05 09:32:00
5:52 AM,53.6,48.0,81,30.06,10.0,West,8.1,-,N/A,,Clear,260,2012-10-05 09:52:00
6:13 AM,52.7,46.6,80,30.06,10.0,West,8.1,-,N/A,,Clear,260,2012-10-05 10:13:00
6:32 AM,52.3,45.9,79,30.05,10.0,West,9.2,-,N/A,,Clear,270,2012-10-05 10:32:00
6:52 AM,51.8,44.8,77,30.06,10.0,West,8.1,-,N/A,,Clear,270,2012-10-05 10:52:00
7:13 AM,50.9,43.7,76,30.06,10.0,West,5.8,-,N/A,,Clear,270,2012-10-05 11:13:00
7:32 AM,50.5,43.7,77,30.07,10.0,West,6.9,-,N/A,,Clear,260,2012-10-05 11:32:00
7:52 AM,50.0,43.5,78,30.06,10.0,West,4.6,-,N/A,,Clear,270,2012-10-05 11:52:00
8:12 AM,50.2,43.5,78,30.07,10.0,West,6.9,-,N/A,,Clear,270,2012-10-05 12:12:00
8:32 AM,50.0,43.3,78,30.07,10.0,West,5.8,-,N/A,,Clear,260,2012-10-05 12:32:00
8:52 AM,50.0,43.2,77,30.08,10.0,West,6.9,-,N/A,,Clear,270,2012-10-05 12:52:00
9:12 AM,50.2,42.8,76,30.08,10.0,West,8.1,-,N/A,,Clear,260,2012-10-05 13:12:00
9:32 AM,50.2,42.8,76,30.08,10.0,West,6.9,-,N/A,,Clear,270,2012-10-05 13:32:00
9:52 AM,50.9,42.8,74,30.08,10.0,West,9.2,-,N/A,,Clear,270,2012-10-05 13:52:00
10:12 AM,50.9,42.6,73,30.08,10.0,West,9.2,-,N/A,,Clear,280,2012-10-05 14:12:00
10:32 AM,51.1,42.6,73,30.08,10.0,West,5.8,-,N/A,,Clear,260,2012-10-05 14:32:00
10:53 AM,51.3,42.8,73,30.07,10.0,West,9.2,-,N/A,,Scattered Clouds,270,2012-10-05 14:53:00
11:12 AM,51.4,42.8,72,30.07,10.0,West,6.9,-,N/A,,Mostly Cloudy,270,2012-10-05 15:12:00
11:32 AM,52.3,43.3,71,30.07,10.0,West,8.1,-,N/A,,Overcast,260,2012-10-05 15:32:00
11:53 AM,53.2,43.2,69,30.06,10.0,WSW,6.9,-,N/A,,Overcast,240,2012-10-05 15:53:00
12:12 PM,53.1,41.7,65,30.06,10.0,WSW,9.2,-,N/A,,Mostly Cloudy,250,2012-10-05 16:12:00
12:32 PM,53.8,42.1,65,30.05,10.0,West,9.2,17.3,N/A,,Scattered Clouds,260,2012-10-05 16:32:00
12:53 PM,54.0,41.0,62,30.05,10.0,WSW,6.9,-,N/A,,Scattered Clouds,250,2012-10-05 16:53:00
1:12 PM,54.5,41.4,61,30.06,10.0,WSW,6.9,-,N/A,,Scattered Clouds,250,2012-10-05 17:12:00
1:32 PM,55.2,41.4,60,30.04,10.0,SW,11.5,17.3,N/A,,Scattered Clouds,230,2012-10-05 17:32:00
1:53 PM,55.4,40.6,58,30.04,10.0,WSW,10.4,17.3,N/A,,Scattered Clouds,250,2012-10-05 17:53:00
2:32 PM,56.7,40.8,55,30.03,10.0,West,11.5,-,N/A,,Overcast,270,2012-10-05 18:32:00
2:53 PM,54.9,38.8,55,30.02,10.0,West,8.1,-,N/A,,Overcast,260,2012-10-05 18:53:00
3:12 PM,54.0,40.6,61,30.02,10.0,West,5.8,-,N/A,,Overcast,260,2012-10-05 19:12:00
3:32 PM,53.8,39.4,58,30.01,10.0,WSW,5.8,-,N/A,,Overcast,250,2012-10-05 19:32:00
3:53 PM,53.8,40.3,60,30.00,10.0,West,5.8,-,N/A,,Light Drizzle,260,2012-10-05 19:53:00
4:12 PM,53.6,40.1,60,29.99,10.0,West,8.1,-,N/A,Rain,Light Rain,270,2012-10-05 20:12:00
4:32 PM,52.9,39.6,61,29.99,10.0,WSW,6.9,-,N/A,,Overcast,240,2012-10-05 20:32:00
4:52 PM,52.2,38.7,60,29.99,10.0,West,6.9,-,N/A,,Overcast,260,2012-10-05 20:52:00
5:12 PM,50.5,42.1,73,29.98,10.0,SW,3.5,-,N/A,Rain,Light Rain,220,2012-10-05 21:12:00
5:33 PM,49.3,43.9,82,29.99,10.0,WSW,3.5,-,N/A,Rain,Rain,240,2012-10-05 21:33:00
5:52 PM,48.7,44.6,86,30.00,10.0,SW,5.8,-,N/A,Rain,Light Rain,230,2012-10-05 21:52:00
6:12 PM,48.6,44.4,86,30.01,10.0,SW,6.9,-,N/A,,Overcast,230,2012-10-05 22:12:00
6:33 PM,48.2,43.7,84,30.00,10.0,WSW,9.2,-,N/A,,Overcast,240,2012-10-05 22:33:00
6:52 PM,47.8,43.2,84,30.00,10.0,SW,9.2,-,N/A,Rain,Light Rain,230,2012-10-05 22:52:00
7:12 PM,47.3,43.0,85,30.01,10.0,WSW,6.9,-,N/A,Rain,Light Rain,250,2012-10-05 23:12:00
7:33 PM,47.3,43.2,86,29.99,10.0,WSW,5.8,-,N/A,,Overcast,250,2012-10-05 23:33:00
7:52 PM,47.1,42.8,85,30.00,10.0,WSW,5.8,-,N/A,,Overcast,240,2012-10-05 23:52:00
8:13 PM,46.9,42.8,86,30.00,10.0,WSW,5.8,-,N/A,,Overcast,240,2012-10-06 00:13:00
8:33 PM,46.8,42.4,85,29.99,10.0,WSW,4.6,-,N/A,,Overcast,240,2012-10-06 00:33:00
8:52 PM,46.6,42.8,87,30.00,10.0,SW,6.9,-,N/A,Rain,Light Rain,230,2012-10-06 00:52:00
9:13 PM,46.4,42.4,86,29.99,10.0,SW,5.8,-,N/A,Rain,Light Rain,230,2012-10-06 01:13:00
9:33 PM,46.0,42.3,87,29.98,10.0,SW,5.8,-,N/A,,Overcast,230,2012-10-06 01:33:00
9:52 PM,46.0,42.4,87,29.99,10.0,SW,4.6,-,N/A,,Overcast,220,2012-10-06 01:52:00
10:13 PM,45.9,42.3,87,29.97,10.0,SW,6.9,-,N/A,,Overcast,230,2012-10-06 02:13:00
10:33 PM,45.7,41.9,87,29.96,10.0,SW,4.6,-,N/A,,Overcast,230,2012-10-06 02:33:00
10:52 PM,45.7,41.9,87,29.96,10.0,SW,4.6,-,N/A,,Overcast,230,2012-10-06 02:52:00
11:13 PM,45.7,41.9,87,29.96,10.0,SW,4.6,-,N/A,,Overcast,230,2012-10-06 03:13:00
11:32 PM,45.7,41.5,85,29.96,10.0,WSW,5.8,-,N/A,,Overcast,240,2012-10-06 03:32:00
11:53 PM,45.7,41.2,84,29.96,10.0,WSW,6.9,-,N/A,,Overcast,240,2012-10-06 03:53:00